Torna al catalogo

COSMOS 2451

AttivoNavigazionePO
NORAD 35498·PAYLOAD·🇷🇺 Russia

Lanciato Jul 6, 2009 da Plesetsk Cosmodrome

Loading…

Prossimi Passaggi (prossime 24 ore)

TLE

AggiornatoSource: Space-Track

Epoca: Sep 14, 2026, 21:52 UTC

1 35498U 09036A   26257.91150559 -.00000026  00000-0 -26335-3 0  9996
2 35498  82.4888  36.6656 0006987  23.5450 336.5947 12.40872040778771

Traccia COSMOS 2451 in tempo reale con AllMySat

Download on the App Store